Fort Lauderdale, FL

7:11 PM EST on November 20, 2019 (GMT -0500)
Fort Lauderdale Executive

Weather History for KFXE - September, 2019

Change the Weather History Date:

Sunday, September 15, 2019

  Actual Average Record
Temperature  
Mean Temperature 85 °F -  
Max Temperature 93 °F 89 °F 100 °F (2004)
Min Temperature 77 °F 73 °F 62 °F (1977)
Cooling Degree Days 20    
Growing Degree Days 35 (Base 50)    
Moisture  
Dew Point 75 °F    
Average Humidity 79    
Maximum Humidity 94    
Minimum Humidity 52    
Precipitation  
Precipitation 0.06 in - - ()
Sea Level Pressure  
Sea Level Pressure 29.91 in    
Wind  
Wind Speed 6 mph ()    
Max Wind Speed 17 mph    
Max Gust Speed 22 mph    
Visibility 10.0 miles    
Events Rain , Thunderstorm    
Averages and records for this station are not official NWS values.
T = Trace of Precipitation, MM = Missing Value Source: Averaged Metar Reports

Daily Weather History Graph

Daily Weather History Graph

Search for Another Location

Airport or City:

Astronomy

Sep. 15, 2019 Rise Set
Actual Time 7:06 AM EDT 7:25 PM EDT
Civil Twilight 6:43 AM EDT 7:48 PM EDT
Nautical Twilight 6:16 AM EDT 8:15 PM EDT
Astronomical Twilight 5:48 AM EDT 8:42 PM EDT
Moon 8:37 PM EDT (9/15) 8:12 AM EDT (9/15)
Length of Visible Light 13h 05m
Length of Day
12h 18m
Full, 98% of the Moon is Illuminated
Sep 15
Full
Sep 21
Last Quarter
Sep 28
New
Oct 5
First Quarter
Oct 13
Full

Hourly Weather History & Observations

Time (EDT) Temp. Heat Index Dew Point Humidity Pressure Visibility Wind Dir Wind Speed Gust Speed Precip Events Conditions
12:53 AM 80.1 °F 85.4 °F 75.9 °F 87% 29.93 in 10.0 mi NW 4.6 mph - N/A   Clear
1:53 AM 79.0 °F - 75.0 °F 88% 29.92 in 10.0 mi WNW 4.6 mph - N/A   Clear
2:53 AM 79.0 °F - 75.9 °F 90% 29.90 in 10.0 mi West 4.6 mph - N/A   Clear
3:53 AM 77.0 °F - 75.0 °F 94% 29.90 in 10.0 mi WSW 5.8 mph - N/A   Clear
4:53 AM 78.1 °F - 75.9 °F 93% 29.90 in 10.0 mi West 5.8 mph - N/A   Clear
5:53 AM 78.1 °F - 75.9 °F 93% 29.91 in 10.0 mi West 3.5 mph - N/A   Clear
6:53 AM 78.1 °F - 75.9 °F 93% 29.91 in 10.0 mi West 6.9 mph - N/A   Clear
7:53 AM 79.0 °F - 77.0 °F 94% 29.93 in 10.0 mi WSW 5.8 mph - N/A   Partly Cloudy
8:14 AM 79.0 °F - 77.0 °F 94% 29.93 in 10.0 mi WNW 5.8 mph - N/A   Mostly Cloudy
8:29 AM 80.1 °F 85.8 °F 77.0 °F 90% 29.93 in 10.0 mi WNW 5.8 mph - N/A   Scattered Clouds
8:53 AM 81.0 °F 87.9 °F 77.0 °F 88% 29.94 in 10.0 mi WNW 5.8 mph - N/A   Scattered Clouds
9:53 AM 84.0 °F 92.6 °F 75.9 °F 76% 29.94 in 10.0 mi NW 5.8 mph - N/A   Clear
10:53 AM 86.0 °F 95.1 °F 75.0 °F 70% 29.94 in 10.0 mi West 11.5 mph - N/A   Scattered Clouds
11:53 AM 89.1 °F 98.0 °F 73.9 °F 61% 29.94 in 10.0 mi WSW 11.5 mph - N/A   Scattered Clouds
12:53 PM 90.0 °F 97.9 °F 73.0 °F 57% 29.93 in 10.0 mi WSW 12.7 mph 19.6 mph N/A   Scattered Clouds
1:53 PM 91.0 °F 100.4 °F 73.9 °F 57% 29.91 in 10.0 mi West 17.3 mph - N/A   Scattered Clouds
2:53 PM 90.0 °F 97.9 °F 73.0 °F 57% 29.89 in 10.0 mi West 12.7 mph - N/A   Mostly Cloudy
3:53 PM 93.0 °F 101.9 °F 73.0 °F 52% 29.88 in 10.0 mi West 12.7 mph 21.9 mph 0.00 in Rain Light Rain
4:53 PM 90.0 °F 96.9 °F 72.0 °F 55% 29.87 in 10.0 mi WSW 8.1 mph - 0.00 in   Clear
5:53 PM 87.1 °F 95.4 °F 73.9 °F 65% 29.88 in 10.0 mi WSW 10.4 mph - 0.00 in   Clear
6:53 PM 86.0 °F 93.8 °F 73.9 °F 67% 29.88 in 10.0 mi West 13.8 mph - 0.00 in Rain , Thunderstorm Light Thunderstorms and Rain
7:53 PM 82.0 °F 90.2 °F 77.0 °F 85% 29.90 in 10.0 mi West 3.5 mph - 0.04 in   Partly Cloudy
8:53 PM 82.9 °F 92.8 °F 78.1 °F 85% 29.92 in 10.0 mi WNW 8.1 mph - N/A   Mostly Cloudy
9:53 PM 82.0 °F 89.4 °F 75.9 °F 82% 29.93 in 10.0 mi West 6.9 mph - 0.02 in   Mostly Cloudy
10:53 PM 81.0 °F 86.7 °F 75.0 °F 82% 29.94 in 10.0 mi WNW 8.1 mph - N/A   Clear
11:53 PM 80.1 °F 85.4 °F 75.9 °F 87% 29.93 in 10.0 mi West 5.8 mph - N/A   Clear